EJU72MK EGNM-LEPA

Flight info

Callsign EJU72MK
Flight time N/A
Altitude 37000
Route POL DCT MCT DCT LISTO P18 STAFA L8 HON/N0446F370 UN859 SOPIL DCT BALAN DCT EVPOK DCT NARAK DCT GAI DCT LOMRA DCT ROCAN DCT IBRAP DCT LUKEV N13 LORES
Aircraft A319/M-SDE3FGHIRWY/LB1

Departure

Time 2026-05-08 08:09
Airport Leeds Bradford Airport (EGNM)

Arrival

Time N/A
Airport Palma de Mallorca Airport (LEPA)
Time Latitude Longitude Altitude Speed Heading
2026-05-08 07:41 53.86885 -1.65696 665 ft 0 kts 359°
2026-05-08 07:59 53.86866 -1.65695 665 ft 3 kts 349°
2026-05-08 07:59 53.86845 -1.65685 664 ft 3 kts 333°
2026-05-08 07:59 53.86828 -1.65666 662 ft 3 kts 311°
2026-05-08 07:59 53.86817 -1.65637 664 ft 3 kts 279°
2026-05-08 08:00 53.86816 -1.65627 664 ft 0 kts 271°
2026-05-08 08:03 53.86816 -1.65637 665 ft 3 kts 270°
2026-05-08 08:03 53.86816 -1.65689 665 ft 6 kts 270°
2026-05-08 08:04 53.86814 -1.65784 665 ft 9 kts 266°
2026-05-08 08:04 53.86813 -1.65894 665 ft 10 kts 270°
2026-05-08 08:04 53.86813 -1.66015 665 ft 11 kts 270°
2026-05-08 08:04 53.86842 -1.66128 665 ft 11 kts 313°
2026-05-08 08:05 53.86900 -1.66218 665 ft 12 kts 318°
2026-05-08 08:05 53.86953 -1.66324 665 ft 12 kts 303°
2026-05-08 08:05 53.86992 -1.66443 666 ft 12 kts 290°
2026-05-08 08:05 53.86973 -1.66564 666 ft 10 kts 237°
2026-05-08 08:06 53.86978 -1.66651 671 ft 10 kts 309°
2026-05-08 08:06 53.87044 -1.66755 676 ft 16 kts 318°
2026-05-08 08:06 53.87138 -1.66898 682 ft 17 kts 318°
2026-05-08 08:06 53.87218 -1.66995 690 ft 12 kts 348°
2026-05-08 08:07 53.87296 -1.66994 691 ft 12 kts
2026-05-08 08:07 53.87381 -1.67014 688 ft 13 kts 322°
2026-05-08 08:07 53.87382 -1.67148 692 ft 11 kts 234°
2026-05-08 08:07 53.87331 -1.67188 697 ft 8 kts 157°
2026-05-08 08:08 53.87302 -1.67156 692 ft 0 kts 137°
2026-05-08 08:08 53.87292 -1.67141 694 ft 7 kts 137°
2026-05-08 08:08 53.87086 -1.66820 679 ft 83 kts 137°
2026-05-08 08:09 53.86475 -1.65886 678 ft 148 kts 137°
2026-05-08 08:09 53.85684 -1.64668 1249 ft 157 kts 138°
2026-05-08 08:09 53.84878 -1.63380 1977 ft 162 kts 137°
2026-05-08 08:09 53.84032 -1.62014 2575 ft 176 kts 139°
2026-05-08 08:10 53.83030 -1.60640 3025 ft 198 kts 154°
2026-05-08 08:10 53.81617 -1.60119 3499 ft 222 kts 185°
2026-05-08 08:10 53.80114 -1.61054 4035 ft 246 kts 219°
2026-05-08 08:10 53.79166 -1.63497 4923 ft 258 kts 254°
2026-05-08 08:11 53.78906 -1.66536 6013 ft 262 kts 261°
2026-05-08 08:11 53.78634 -1.69608 7063 ft 266 kts 259°
2026-05-08 08:11 53.78320 -1.72708 8081 ft 270 kts 258°
2026-05-08 08:11 53.77982 -1.75848 9121 ft 273 kts 258°
2026-05-08 08:12 53.77637 -1.79027 10135 ft 277 kts 258°
2026-05-08 08:12 53.77282 -1.82351 10623 ft 299 kts 258°
2026-05-08 08:12 53.76902 -1.85958 11004 ft 322 kts 259°
2026-05-08 08:12 53.76508 -1.89746 11708 ft 332 kts 259°
2026-05-08 08:13 53.76105 -1.93618 12545 ft 337 kts 259°
2026-05-08 08:13 53.75698 -1.97548 13383 ft 342 kts 259°
2026-05-08 08:13 53.75261 -2.01526 14166 ft 347 kts 255°
2026-05-08 08:13 53.74384 -2.05324 14890 ft 349 kts 240°
2026-05-08 08:14 53.72928 -2.08612 15650 ft 352 kts 225°
2026-05-08 08:14 53.70987 -2.11129 16422 ft 355 kts 210°
2026-05-08 08:14 53.68690 -2.12702 17174 ft 359 kts 195°
2026-05-08 08:14 53.66256 -2.13703 17951 ft 362 kts 194°
2026-05-08 08:15 53.63796 -2.14711 18660 ft 365 kts 195°
2026-05-08 08:15 53.61316 -2.15731 19304 ft 369 kts 195°
2026-05-08 08:15 53.58813 -2.16762 19956 ft 372 kts 195°
2026-05-08 08:15 53.56282 -2.17806 20612 ft 375 kts 195°
2026-05-08 08:16 53.53735 -2.18858 21261 ft 379 kts 195°
2026-05-08 08:16 53.51169 -2.19915 21895 ft 382 kts 195°
2026-05-08 08:16 53.48563 -2.20985 22519 ft 386 kts 195°
2026-05-08 08:16 53.45942 -2.22059 23119 ft 389 kts 195°
2026-05-08 08:17 53.43296 -2.23140 23698 ft 393 kts 195°
2026-05-08 08:17 53.40633 -2.24223 24170 ft 396 kts 195°
2026-05-08 08:17 53.37964 -2.25251 24611 ft 401 kts 192°
2026-05-08 08:17 53.35170 -2.25670 25055 ft 407 kts 182°
2026-05-08 08:18 53.32328 -2.25253 25486 ft 413 kts 172°
2026-05-08 08:18 53.29481 -2.24398 25911 ft 417 kts 172°
2026-05-08 08:18 53.26611 -2.23540 26351 ft 420 kts 172°
2026-05-08 08:18 53.23720 -2.22681 26770 ft 424 kts 172°
2026-05-08 08:19 53.20797 -2.21816 27186 ft 428 kts 172°
2026-05-08 08:19 53.17852 -2.20947 27601 ft 432 kts 172°
2026-05-08 08:19 53.14870 -2.20253 28003 ft 434 kts 179°
2026-05-08 08:19 53.11854 -2.20286 28399 ft 434 kts 187°
2026-05-08 08:20 53.08836 -2.20762 28784 ft 438 kts 188°
2026-05-08 08:20 53.05783 -2.21246 29162 ft 441 kts 188°
2026-05-08 08:20 53.02716 -2.21731 29534 ft 445 kts 188°
2026-05-08 08:20 52.99629 -2.22216 29887 ft 448 kts 188°
2026-05-08 08:21 52.96505 -2.22703 30230 ft 452 kts 188°
2026-05-08 08:21 52.93362 -2.23187 30529 ft 455 kts 188°
2026-05-08 08:21 52.90177 -2.23276 30825 ft 462 kts 179°
2026-05-08 08:21 52.86980 -2.22493 31118 ft 468 kts 169°
2026-05-08 08:22 52.83865 -2.20788 31502 ft 472 kts 159°
2026-05-08 08:22 52.80958 -2.18232 31901 ft 476 kts 149°
2026-05-08 08:22 52.78238 -2.15092 32290 ft 477 kts 147°
2026-05-08 08:22 52.75523 -2.11928 32684 ft 478 kts 147°
2026-05-08 08:23 52.72797 -2.08772 33082 ft 478 kts 147°
2026-05-08 08:23 52.70063 -2.05631 33492 ft 479 kts 147°
2026-05-08 08:23 52.67326 -2.02503 33903 ft 479 kts 148°
2026-05-08 08:23 52.64588 -1.99377 34281 ft 479 kts 147°
2026-05-08 08:24 52.61848 -1.96239 34663 ft 478 kts 147°
2026-05-08 08:24 52.59156 -1.93148 35073 ft 477 kts 147°
2026-05-08 08:24 52.56436 -1.90024 35479 ft 476 kts 147°
2026-05-08 08:24 52.53729 -1.86915 35871 ft 474 kts 147°
2026-05-08 08:25 52.51025 -1.83819 36239 ft 473 kts 147°
2026-05-08 08:25 52.48331 -1.80742 36601 ft 471 kts 147°
2026-05-08 08:25 52.45640 -1.77674 36941 ft 470 kts 147°
2026-05-08 08:25 52.42920 -1.74585 37099 ft 469 kts 147°
2026-05-08 08:26 52.40268 -1.71579 37112 ft 468 kts 147°
2026-05-08 08:26 52.34729 -1.66088 37110 ft 463 kts 159°
2026-05-08 08:27 52.28648 -1.62718 37101 ft 461 kts 165°
2026-05-08 08:27 52.22531 -1.59538 37104 ft 461 kts 165°
2026-05-08 08:28 52.16413 -1.56338 37105 ft 461 kts 165°
2026-05-08 08:28 52.10288 -1.53159 37109 ft 462 kts 165°
2026-05-08 08:29 52.04161 -1.49996 37106 ft 462 kts 165°
2026-05-08 08:29 51.98033 -1.46842 37090 ft 462 kts 165°
2026-05-08 08:30 51.91904 -1.43692 37099 ft 462 kts 165°
2026-05-08 08:30 51.82709 -1.38981 37101 ft 462 kts 165°
2026-05-08 08:31 51.76574 -1.35849 37099 ft 462 kts 165°
2026-05-08 08:31 51.70435 -1.32724 37092 ft 462 kts 165°
2026-05-08 08:32 51.64343 -1.29632 37085 ft 462 kts 165°
2026-05-08 08:32 51.58214 -1.26536 37082 ft 462 kts 165°
2026-05-08 08:33 51.52086 -1.23442 37090 ft 462 kts 165°
2026-05-08 08:33 51.46089 -1.19718 37082 ft 463 kts 157°
2026-05-08 08:34 51.40238 -1.15402 37083 ft 463 kts 157°
2026-05-08 08:34 51.34377 -1.11089 37092 ft 463 kts 157°
2026-05-08 08:35 51.28521 -1.06796 37094 ft 463 kts 157°
2026-05-08 08:35 51.22662 -1.02529 37092 ft 463 kts 157°
2026-05-08 08:36 51.16800 -0.98265 37090 ft 462 kts 157°
2026-05-08 08:36 51.10946 -0.94019 37089 ft 462 kts 157°
2026-05-08 08:37 51.05100 -0.89766 37089 ft 462 kts 157°
2026-05-08 08:37 50.99246 -0.85535 37087 ft 462 kts 158°
2026-05-08 08:38 50.93397 -0.81329 37089 ft 462 kts 158°
2026-05-08 08:38 50.87537 -0.77122 37086 ft 462 kts 158°
2026-05-08 08:39 50.81962 -0.72050 37086 ft 463 kts 149°
2026-05-08 08:39 50.77454 -0.67454 37087 ft 464 kts 149°
2026-05-08 08:40 50.72021 -0.61941 37089 ft 463 kts 149°
2026-05-08 08:40 50.66599 -0.56444 37090 ft 463 kts 149°
2026-05-08 08:41 50.61178 -0.50963 37088 ft 463 kts 149°
2026-05-08 08:41 50.55755 -0.45496 37089 ft 463 kts 149°
2026-05-08 08:42 50.50328 -0.40045 37087 ft 463 kts 149°
2026-05-08 08:42 50.44895 -0.34609 37088 ft 463 kts 149°
2026-05-08 08:43 50.39465 -0.29183 37083 ft 463 kts 149°
2026-05-08 08:43 50.34032 -0.23769 37089 ft 463 kts 149°
2026-05-08 08:44 50.28622 -0.18397 37090 ft 463 kts 149°
2026-05-08 08:44 50.23154 -0.12976 37093 ft 462 kts 149°
2026-05-08 08:45 50.17748 -0.07628 37090 ft 462 kts 150°
2026-05-08 08:45 50.12297 -0.02286 37083 ft 461 kts 152°
2026-05-08 08:46 50.06406 0.01456 37087 ft 455 kts 168°
2026-05-08 08:46 50.00264 0.03840 37084 ft 455 kts 168°
2026-05-08 08:47 49.94112 0.06238 37072 ft 455 kts 168°
2026-05-08 08:47 49.87966 0.08657 37068 ft 456 kts 168°
2026-05-08 08:48 49.81821 0.11077 37067 ft 456 kts 168°
2026-05-08 08:48 49.75663 0.13487 37075 ft 457 kts 168°
2026-05-08 08:49 49.69498 0.15888 37081 ft 457 kts 168°
2026-05-08 08:49 49.63372 0.18293 37086 ft 457 kts 168°
2026-05-08 08:50 49.57212 0.20785 37091 ft 457 kts 168°
2026-05-08 08:50 49.51069 0.23278 37085 ft 457 kts 168°
2026-05-08 08:51 49.44915 0.25745 37055 ft 457 kts 168°
2026-05-08 08:51 49.38757 0.28207 37057 ft 457 kts 168°
2026-05-08 08:52 49.32600 0.30658 37052 ft 457 kts 168°
2026-05-08 08:52 49.26440 0.33157 37053 ft 458 kts 168°
2026-05-08 08:53 49.20296 0.35779 37048 ft 458 kts 167°
2026-05-08 08:53 49.14157 0.38407 37043 ft 458 kts 167°
2026-05-08 08:54 49.08014 0.40998 37040 ft 458 kts 168°
2026-05-08 08:54 49.01860 0.43560 37040 ft 458 kts 168°
2026-05-08 08:55 48.95702 0.46116 37038 ft 459 kts 168°
2026-05-08 08:55 48.89533 0.48678 37030 ft 459 kts 168°
2026-05-08 08:56 48.83371 0.51241 37028 ft 459 kts 168°
2026-05-08 08:56 48.77201 0.53785 37027 ft 459 kts 168°
2026-05-08 08:57 48.71010 0.56223 37025 ft 459 kts 169°
2026-05-08 08:57 48.64809 0.58611 37021 ft 460 kts 169°
2026-05-08 08:58 48.58606 0.61020 37021 ft 460 kts 169°
2026-05-08 08:58 48.52441 0.63435 37020 ft 461 kts 169°
2026-05-08 08:59 48.46237 0.65908 37022 ft 461 kts 168°
2026-05-08 08:59 48.40039 0.68465 37019 ft 462 kts 168°
2026-05-08 09:00 48.33833 0.71016 37017 ft 462 kts 168°
2026-05-08 09:00 48.27620 0.73528 37021 ft 462 kts 168°
2026-05-08 09:01 48.21393 0.76009 37012 ft 463 kts 169°
2026-05-08 09:01 48.15167 0.78446 37014 ft 463 kts 169°
2026-05-08 09:02 48.08932 0.80885 37023 ft 463 kts 169°
2026-05-08 09:02 48.02696 0.83323 37021 ft 463 kts 169°
2026-05-08 09:03 47.96465 0.85766 37018 ft 463 kts 169°
2026-05-08 09:03 47.90222 0.88197 37022 ft 463 kts 169°
2026-05-08 09:04 47.83995 0.90605 37019 ft 463 kts 169°
2026-05-08 09:04 47.77757 0.93021 37014 ft 463 kts 169°
2026-05-08 09:05 47.71531 0.95439 37009 ft 463 kts 169°
2026-05-08 09:05 47.65300 0.97852 37011 ft 463 kts 169°
2026-05-08 09:06 47.59060 1.00254 37009 ft 463 kts 169°
2026-05-08 09:06 47.52829 1.02642 37007 ft 462 kts 169°
2026-05-08 09:07 47.46601 1.05021 37002 ft 462 kts 169°
2026-05-08 09:07 47.40301 1.06385 36994 ft 454 kts 185°
2026-05-08 09:08 47.33995 1.06229 36989 ft 453 kts 185°
2026-05-08 09:08 47.27723 1.06090 36989 ft 453 kts 185°
2026-05-08 09:09 47.21411 1.05937 36987 ft 453 kts 185°
2026-05-08 09:09 47.15096 1.05783 36981 ft 454 kts 185°
2026-05-08 09:10 47.08781 1.05640 36979 ft 454 kts 185°
2026-05-08 09:10 47.02465 1.05496 36986 ft 454 kts 186°
2026-05-08 09:11 46.96151 1.05268 36975 ft 453 kts 186°
2026-05-08 09:11 46.89846 1.04963 36977 ft 453 kts 187°
2026-05-08 09:12 46.83538 1.04674 36974 ft 453 kts 186°
2026-05-08 09:12 46.77237 1.04410 36976 ft 453 kts 186°
2026-05-08 09:13 46.70963 1.04151 36974 ft 453 kts 186°
2026-05-08 09:13 46.64662 1.03885 36973 ft 453 kts 187°
2026-05-08 09:14 46.58360 1.03612 36975 ft 453 kts 187°
2026-05-08 09:14 46.52039 1.03513 36979 ft 457 kts 180°
2026-05-08 09:15 46.45746 1.05297 36974 ft 462 kts 171°
2026-05-08 09:15 46.39469 1.07408 36976 ft 462 kts 172°
2026-05-08 09:16 46.33199 1.09496 36977 ft 462 kts 172°
2026-05-08 09:16 46.26925 1.11576 36975 ft 462 kts 172°
2026-05-08 09:17 46.20648 1.13659 36977 ft 463 kts 172°
2026-05-08 09:17 46.15430 1.15393 36979 ft 463 kts 172°
2026-05-08 09:18 46.08129 1.17810 36988 ft 463 kts 172°
2026-05-08 09:18 46.02862 1.19542 36986 ft 463 kts 172°
2026-05-08 09:19 45.96612 1.21596 36989 ft 463 kts 172°
2026-05-08 09:19 45.90324 1.23660 36997 ft 463 kts 172°
2026-05-08 09:20 45.84041 1.25731 36996 ft 463 kts 172°